View from above orbital plane
|
View from above satellite
|
Ground track
|
The orbit data is extracted from the following two-line orbital elements,
1 37828U 11054C 21057.82543362 .00001721 00000-0 51647-3 0 9994
2 37828 49.3781 196.9087 5568011 126.5083 298.6740 4.67454831156351
Epoch (UTC): | 26 February 2021 19:48:37 |
Eccentricity: | 0.5568011 |
inclination: | 49.3781° |
perigee height: | 318 km |
apogee height: | 17144 km |
right ascension of ascending node: | 196.9087° |
argument of perigee: | 126.5083° |
revolutions per day: | 4.67454831 |
mean anomaly at epoch: | 298.6740° |
orbit number at epoch: | 15635 |
The dashed part of the orbit path shows where the satellite is in the earth's shadow,
|
|